Location: Cruquius
(52.3348°N, 4.6319°E)
Time: 14:00:54
(UTC+00:00)

Cosmos 1461 - Pass Details

Date: 12 May 2021
Orbit: 510 x 653 km, 65.0° (Epoch: 19 June)

Event Time Altitude Azimuth Distance (km) Brightness Sun altitude
Exits shadow 23:11:46 31° 218° (SW) 1,129 4.0 -19.1°
Maximum altitude 23:13:58 86° 132° (SE) 653 3.0 -19.1°
Drops below altitude 10° 23:18:35 10° 43° (NE) 2,021 6.2 -19.2°
Sets 23:20:50 0° 43° (NE) 2,913 7.1 -19.2°
